Sarasota, FL

11:07 PM EDT on June 26, 2017 (GMT -0400)
Sarasota-bradenton

Weather History for KSRQ - May, 2013

Change the Weather History Date:

Tuesday, May 14, 2013

  Actual Average Record
Temperature  
Mean Temperature 72 °F 76 °F  
Max Temperature 85 °F 85 °F 94 °F (1985)
Min Temperature 59 °F 67 °F 48 °F (1924)
Degree Days  
Heating Degree Days 0 0  
Month to date heating degree days 0 0  
Since 1 July heating degree days 397 477  
Cooling Degree Days 7 11  
Month to date cooling degree days 109 139  
Year to date cooling degree days 633 536  
Growing Degree Days 22 (Base 50)    
Moisture  
Dew Point 49 °F    
Average Humidity 46    
Maximum Humidity 67    
Minimum Humidity 25    
Precipitation  
Precipitation 0.00 in 0.05 in 1.14 in (1968)
Month to date precipitation 1.35 0.93  
Year to date precipitation 7.48 12.42  
Sea Level Pressure  
Sea Level Pressure 30.16 in    
Wind  
Wind Speed 8 mph (NNE)    
Max Wind Speed 17 mph    
Max Gust Speed 23 mph    
Visibility 10 miles    
Events      
T = Trace of Precipitation, MM = Missing Value Source: NWS Daily Summary

Daily Weather History Graph

Daily Weather History Graph

Search for Another Location

Airport or City:

Trip Planner

Search our weather history database for the weather conditions in past years. The results will help you decide how hot, cold, wet, or windy it might be!

Date:

Astronomy

May. 14, 2013 Rise Set
Actual Time 6:42 AM EDT 8:11 PM EDT
Civil Twilight 6:16 AM EDT 8:36 PM EDT
Nautical Twilight 5:46 AM EDT 9:07 PM EDT
Astronomical Twilight 5:14 AM EDT 9:38 PM EDT
Moon 10:19 AM EDT (5/14) No Moon Set
Length of Visible Light 14h 20m
Length of Day
13h 29m
Waxing Crescent, 19% of the Moon is Illuminated
May 14
Waxing Crescent
May 18
First Quarter
May 25
Full
May 31
Last Quarter
Jun 8
New

Hourly Weather History & Observations

Time (EDT) Temp. Dew Point Humidity Pressure Visibility Wind Dir Wind Speed Gust Speed Precip Events Conditions
12:53 AM 66.9 °F 54.0 °F 63% 30.13 in 10.0 mi NNE 4.6 mph - N/A   Clear
1:53 AM 66.0 °F 48.9 °F 54% 30.12 in 10.0 mi NNE 5.8 mph - N/A   Clear
2:53 AM 63.0 °F 51.1 °F 65% 30.13 in 10.0 mi NE 4.6 mph - N/A   Clear
3:53 AM 62.1 °F 48.9 °F 62% 30.14 in 10.0 mi NE 4.6 mph - N/A   Clear
4:53 AM 61.0 °F 48.0 °F 62% 30.14 in 10.0 mi NE 6.9 mph - N/A   Clear
5:53 AM 60.1 °F 48.0 °F 64% 30.14 in 10.0 mi NE 5.8 mph - N/A   Clear
6:53 AM 59.0 °F 48.9 °F 69% 30.17 in 10.0 mi NE 3.5 mph - N/A   Clear
7:53 AM 64.0 °F 52.0 °F 65% 30.18 in 10.0 mi NE 4.6 mph - N/A   Clear
8:53 AM 70.0 °F 52.0 °F 53% 30.19 in 10.0 mi NE 8.1 mph - N/A   Clear
9:53 AM 73.9 °F 48.0 °F 40% 30.20 in 10.0 mi ENE 10.4 mph - N/A   Clear
10:53 AM 78.1 °F 43.0 °F 29% 30.21 in 10.0 mi ENE 13.8 mph 20.7 mph N/A   Clear
11:53 AM 79.0 °F 43.0 °F 28% 30.20 in 10.0 mi East 9.2 mph - N/A   Clear
12:53 PM 81.0 °F 41.0 °F 24% 30.20 in 10.0 mi ENE 5.8 mph - N/A   Clear
1:53 PM 81.0 °F 41.0 °F 24% 30.18 in 10.0 mi Calm Calm - N/A   Clear
2:53 PM 84.0 °F 46.0 °F 26% 30.15 in 10.0 mi North 11.5 mph - N/A   Clear
3:53 PM 84.0 °F 44.1 °F 25% 30.14 in 10.0 mi NNW 11.5 mph - N/A   Clear
4:53 PM 82.0 °F 48.0 °F 30% 30.12 in 10.0 mi North 13.8 mph 23.0 mph N/A   Clear
5:53 PM 80.1 °F 48.9 °F 34% 30.11 in 10.0 mi NNW 15.0 mph - N/A   Clear
6:53 PM 78.1 °F 52.0 °F 40% 30.11 in 10.0 mi NW 10.4 mph - N/A   Clear
7:53 PM 75.9 °F 51.1 °F 42% 30.12 in 10.0 mi NNW 9.2 mph - N/A   Clear
8:53 PM 73.9 °F 52.0 °F 46% 30.13 in 10.0 mi North 10.4 mph - N/A   Clear
9:53 PM 73.0 °F 53.1 °F 49% 30.15 in 10.0 mi North 8.1 mph - N/A   Clear
10:53 PM 71.1 °F 55.0 °F 57% 30.18 in 10.0 mi NE 6.9 mph - N/A   Clear
11:53 PM 68.0 °F 55.0 °F 63% 30.18 in 10.0 mi East 5.8 mph - N/A   Clear